Powrót do katalogu

STARLINK-31651

AktywnyŁącznośćVLEO
NORAD 59860·PAYLOAD·🇺🇸 United States

Wystrzelony May 24, 2024 z Cape Canaveral Space Force Station

Loading…

Następne Przeloty (najbliższe 24 godziny)

TLE

ŚwieżeSource: CelesTrak SupGP

Epoka: Sep 14, 2026, 21:11 UTC

1 59860C 24098C   26257.88312500 -.00006362  00000+0 -23042-3 0  2579
2 59860  43.0004 289.5234 0001532 266.2788 356.8050 15.27580504    19

Śledź STARLINK-31651 w czasie rzeczywistym z AllMySat

Download on the App Store